This is the latest recevied weather packets stored in our database for station/object N0TKN. If no packets are shown the sender has not sent any weather packets the latest 1 day(s).
| Time | Temp. | Humidity | Pressure | Rain* | Wind** | Luminosity | Snow |
|---|---|---|---|---|---|---|---|
| 1778001317 | 10° C | 94% | 1011 hPa | 2.03 mm | 1.79 m/s, 25° | 221 W/m² | - |
| 1778000717 | 10° C | 93% | 1011 hPa | 2.03 mm | 1.34 m/s, 13° | 223 W/m² | - |
| 1778000117 | 10° C | 93% | 1010.8 hPa | 2.03 mm | 2.24 m/s, 23° | 246 W/m² | - |
| 1777999517 | 10° C | 92% | 1010.6 hPa | 1.78 mm | 1.79 m/s, 30° | 119 W/m² | - |
| 1777998917 | 10° C | 88% | 1011.9 hPa | 0.76 mm | 0.89 m/s, 4° | 71 W/m² | - |
| 1777998325 | 10.56° C | 84% | 1012.6 hPa | 0.51 mm | 0.89 m/s, 321° | 45 W/m² | - |
| 1777997718 | 10.56° C | 82% | 1012.2 hPa | 0 mm | 0.89 m/s, 342° | 49 W/m² | - |
| 1777997118 | 11.11° C | 82% | 1012.1 hPa | 0 mm | 1.34 m/s, 339° | 46 W/m² | - |
| 1777996520 | 11.11° C | 80% | 1011.5 hPa | 0 mm | 0.89 m/s, 2° | 56 W/m² | - |
| 1777995915 | 11.11° C | 78% | 1011.6 hPa | 0 mm | 0.89 m/s, 24° | 67 W/m² | - |
| 1777995315 | 11.11° C | 78% | 1011.3 hPa | 0 mm | 1.34 m/s, 31° | 78 W/m² | - |
| 1777994716 | 11.11° C | 77% | 1010.7 hPa | 0 mm | 1.34 m/s, 49° | 164 W/m² | - |
| 1777994116 | 11.11° C | 78% | 1009.7 hPa | 0.25 mm | 0.89 m/s, 44° | 345 W/m² | - |
| 1777993516 | 10.56° C | 83% | 1009.3 hPa | 0.25 mm | 1.34 m/s, 47° | 346 W/m² | - |
| 1777992916 | 10.56° C | 85% | 1009.2 hPa | 0.25 mm | 2.24 m/s, 42° | 315 W/m² | - |
| 1777992316 | 10.56° C | 84% | 1009.6 hPa | 0.25 mm | 2.24 m/s, 35° | 160 W/m² | - |
| 1777991716 | 10.56° C | 85% | 1009.8 hPa | 0.25 mm | 2.24 m/s, 43° | 88 W/m² | - |
| 1777991117 | 10.56° C | 82% | 1010.4 hPa | 0.25 mm | 1.79 m/s, 46° | 86 W/m² | - |
| 1777990517 | 11.11° C | 81% | 1010.3 hPa | 0 mm | 2.24 m/s, 44° | 52 W/m² | - |
| 1777989917 | 11.11° C | 80% | 1010.5 hPa | 0 mm | 2.24 m/s, 40° | 78 W/m² | - |
| 1777989317 | 11.11° C | 81% | 1009.8 hPa | 0 mm | 1.79 m/s, 39° | 249 W/m² | - |
| 1777988718 | 11.11° C | 81% | 1009.1 hPa | 0 mm | 2.68 m/s, 45° | 410 W/m² | - |
| 1777988117 | 10.56° C | 82% | 1009.1 hPa | 0 mm | 1.79 m/s, 48° | 317 W/m² | - |
| 1777987518 | 10.56° C | 82% | 1008.9 hPa | 0 mm | 1.79 m/s, 42° | 294 W/m² | - |
| 1777986918 | 10.56° C | 84% | 1008.7 hPa | 0 mm | 1.79 m/s, 53° | 236 W/m² | - |
* Rain latest hour (hover to see other rain measurements)
** Current wind speed in m/s (hover to see current wind gust speed)